Cloud_Cover
0 0 0 0 1 5 5 5 5 5 56 12 13 25 11 4 0 0 0 0 5 5 13 5 14 5 1 0 0 0 0 71 93 54 29 0 0 0 0 0 0 0 0
0 0 0 3 3 5 5 5 5 5 10 16 47 63 6 6 5 0 3 0 1 45 8 2 0 0 0 0 0 0 0 0 0 0 0 0 0 0 0 0 0 0 0
0 0 0 3 5 5 59 5 1 4 91 64 96 5 0 20 0 0 0 2 7 6 15 12 0 0 0 0 0 0 0 0 0 0 0 0 0 0 0 0 0 0 0
0 0 0 93 67 2 1 5 11 98 97 55 35 5 52 14 0 0 3 44 74 65 38 0 0 0 0 0 0 0 0 0 0 7 98 100 0 0 0 6 0 0 0
0 0 3 57 100 97 0 22 94 94 100 80 0 0 9 0 0 0 33 36 6 0 0 0 0 0 0 0 0 0 0 0 0 4 0 39 0 0 1 1 1 2 2
0 0 11 5 40 100 4 25 30 100 94 99 0 0 0 3 0 12 23 0 0 0 0 0 0 0 0 0 0 0 0 0 0 76 0 0 0 4 7 0 0 64 88
5 56 21 53 100 55 7 5 78 96 64 61 0 0 0 1 4 6 7 0 0 0 0 0 0 0 0 0 0 0 0 0 0 4 0 0 0 0 0 0 3 14 82
6 75 100 90 100 83 38 5 55 43 99 97 0 0 1 5 0 8 1 0 0 0 5 1 0 0 0 0 0 0 0 0 0 0 0 0 0 0 0 0 10 17 87
18 82 97 86 49 13 79 32 96 97 100 97 0 3 0 1 2 5 1 0 0 13 15 0 0 0 0 0 0 0 0 0 0 0 0 0 0 0 1 0 10 27 12
5 5 100 100 95 48 18 5 89 100 100 98 5 4 0 4 5 5 0 0 2 1 0 0 0 0 0 0 0 0 0 0 0 0 0 1 0 16 8 9 35 44 50
5 25 5 5 5 58 23 19 5 16 100 100 10 4 0 0 4 1 0 3 2 0 0 0 5 5 5 1 0 0 0 5 3 0 0 0 21 100 98 95 100 90 4
19 9 48 5 5 5 8 14 23 5 79 99 100 5 5 5 3 0 0 4 5 5 5 5 5 5 5 5 5 5 5 5 0 0 0 0 0 93 77 91 49 21 0
5 5 5 13 12 33 5 0 5 5 5 8 7 5 4 5 5 5 5 10 7 9 86 84 33 16 5 5 5 5 3 0 0 0 0 0 8 43 16 0 0 0 0
95 95 5 28 50 16 6 6 5 5 5 7 5 8 5 16 6 5 5 8 5 5 7 6 29 23 38 39 5 4 0 0 0 0 0 0 1 0 0 0 0 2 2
100 100 100 96 94 45 20 66 62 86 55 5 13 5 5 26 92 69 77 54 91 45 14 5 5 5 4 2 0 0 0 0 0 5 1 5 5 5 5 5 3 5 5
100 100 98 100 83 82 62 66 67 76 40 7 20 62 99 100 87 79 57 44 5 18 92 31 5 5 4 1 5 4 0 2 3 5 7 8 5 5 5 5 4 5 5
100 100 100 100 100 99 86 64 53 5 67 99 100 100 100 100 76 13 5 7 0 1 99 100 55 5 5 5 5 5 4 6 5 28 98 17 12 5 17 10 6 5 5
100 100 100 100 100 100 100 100 100 100 100 100 100 98 42 5 19 2 0 0 0 0 100 96 100 18 5 5 20 30 6 5 12 14 57 100 28 5 92 100 100 22 31
100 100 100 100 100 100 100 100 100 100 75 85 47 19 5 45 39 5 0 4 0 2 8 62 71 94 97 100 100 99 96 80 5 6 65 36 94 16 98 90 86 100 100
100 79 100 100 100 100 74 74 58 6 6 5 37 62 100 100 17 0 0 0 1 4 5 5 25 100 14 68 60 74 100 81 47 82 100 92 64 84 23 14 52 100 100
38 7 5 23 8 7 5 15 9 5 5 59 100 59 42 63 22 5 1 3 0 5 5 16 70 58 65 82 100 100 79 100 100 100 99 79 15 5 72 66 55 100 100
100 97 72 51 29 50 10 5 23 94 55 18 5 4 1 3 72 92 25 7 29 13 92 99 100 100 34 5 15 16 37 56 56 14 14 41 73 83 84 100 100 100 100
100 99 94 48 29 98 55 5 13 40 65 65 3 0 0 0 0 0 65 93 75 98 100 100 100 100 97 76 80 84 87 100 100 100 100 100 100 100 100 100 100 100 100
100 100 100 100 96 25 7 92 86 44 11 7 5 18 36 6 5 3 4 28 5 90 100 100 41 100 100 100 88 100 100 100 100 100 100 100 100 100 100 100 100 100 100
100 100 100 100 100 100 100 100 68 5 5 5 5 5 81 100 98 49 47 25 63 100 100 100 100 98 100 100 100 99 100 87 90 98 98 100 100 100 100 100 100 100 100
100 100 100 100 100 98 81 67 49 5 5 5 5 5 18 19 90 98 99 100 100 100 100 100 100 100 100 100 70 40 91 95 64 77 100 100 100 100 100 100 100 100 100